Find STARLINK-37670

NORAD ID: 799500969 Int'l Des: 2026-132Y Constellation: starlink operational

現在のビュー

3D地球を読み込み中...

About STARLINK-37670

STARLINK-37670 (NORAD 799500969) is a starlink constellation satellite launched Jun 8, 2026

STARLINK-37670について

説明を読み込み中...

次回通過

Passes for default location (London). Set your location on the main map for personalized predictions.

高度履歴

Loading altitude history...

軌道要素

1 99999C 2026132Y 26163.68520832 .06948200 00000-0 626770-3 0 1636
2 99999 53.1626 346.5101 0011235 283.3306 298.4954 16.08498510 11
Epoch: Jun 12, 2026 • Age: 8 hours